Location: Unspecified
(0.0000°N, 0.0000°E)
Time: 19:18:09
(UTC+00:00)

Vanguard 1 - Visible Passes

Search period start: 19 January 2017 00:00
Search period end: 29 January 2017 00:00
Orbit: 652 x 3832 km, 34.2° (Epoch: 18 January)

Date Brightness Start Highest point End Pass type
(mag) Time Alt. Az. Time Alt. Az. Time Alt. Az.
19 Jan 13.7 18:56:28 10° SSW 19:12:51 29° SSE 19:31:01 11° E visible
19 Jan 12.7 21:19:21 10° SW 21:42:27 66° SE 21:43:43 65° SE visible
19 Jan 13.6 23:46:45 10° WSW 23:56:24 30° WSW 23:56:24 30° WSW visible
20 Jan 13.5 19:17:28 10° SSW 19:35:33 36° SSE 19:50:34 19° E visible
20 Jan 12.6 21:40:46 10° SW 22:03:16 78° S 22:03:16 78° S visible
21 Jan 13.8 00:09:46 10° WSW 00:15:57 21° W 00:15:57 21° W visible
21 Jan 13.2 19:38:27 10° SSW 19:57:57 45° SE 20:10:11 29° E visible
21 Jan 12.7 22:02:24 10° SW 22:22:53 74° WSW 22:22:53 74° WSW visible
22 Jan 14.1 00:33:26 10° W 00:35:35 13° W 00:35:35 13° W visible
22 Jan 13.0 19:59:28 10° SW 20:20:07 55° SE 20:29:52 39° E visible
22 Jan 12.9 22:24:22 10° WSW 22:42:35 60° W 22:42:35 60° W visible
23 Jan 12.8 20:20:36 10° SW 20:42:06 68° SE 20:49:38 52° E visible
23 Jan 13.2 22:46:43 10° WSW 23:02:20 46° W 23:02:20 46° W visible
24 Jan 13.4 18:20:01 10° SSW 18:35:57 36° SE 18:56:09 10° E visible
24 Jan 12.6 20:41:54 10° SW 21:03:59 81° SE 21:09:28 64° ENE visible
24 Jan 13.5 23:09:35 10° WSW 23:22:10 35° W 23:22:10 35° W visible
25 Jan 13.2 18:40:48 10° SSW 18:58:03 45° SE 19:16:37 16° E visible
25 Jan 12.6 21:03:25 10° SW 21:25:49 84° NW 21:29:21 73° NNE visible
25 Jan 13.8 23:33:06 10° W 23:42:04 25° W 23:42:04 25° W visible
26 Jan 13.0 19:01:40 10° SW 19:19:58 56° SE 19:36:34 23° ENE visible
26 Jan 12.7 21:25:14 10° WSW 21:47:41 70° NW 21:49:18 69° NNW visible
26 Jan 14.0 23:57:23 10° W 00:02:02 17° WNW 00:02:02 17° WNW visible
27 Jan 12.9 19:22:41 10° SW 19:41:46 68° SE 19:56:35 31° ENE visible
27 Jan 12.9 21:47:27 10° WSW 22:09:19 58° NW 22:09:19 58° NW visible
28 Jan 12.8 19:43:51 10° SW 20:03:33 83° SE 20:16:39 38° ENE visible
28 Jan 13.2 22:10:10 10° WSW 22:29:23 46° NW 22:29:23 46° NW visible
